[[{"header":{"parameterUnit":"m.s-1","parameterCategory":1,"la1":30.2991,"la2":30.254,"lo1":-89.0895,"lo2":-89.0444,"dy":0.0017,"dx":0.0017,"nx":28,"ny":28,"refTime":"2024-04-13T09:00:00:Z","depth":0,"parameterNumber":2,"parameterNumberName":"U-component_of_WINDS"},"data":[0,0,0,0,0,0,0,0,0,0,0,0,0,0,0,0,0,0,0,0,0,0,0,0,0,0,0,0,0,0,0,0,0,0,0,0,0,0,0,0,0,0,0,0,0,0,0,0,0,0,0,0,0,0,0,0,0,0,-1.8504,-1.8504,0,-1.8487,-1.8487,-1.8486,-1.8441,-1.844,-1.8439,-1.8438,-1.8422,-1.8423,-1.8423,0,0,0,0,0,0,0,0,0,0,0,0,0,-1.85,-1.8501,-1.8504,-1.8504,-1.8504,-1.8487,-1.8487,-1.8486,-1.8441,-1.844,-1.8439,-1.8438,-1.8422,-1.8423,-1.8423,0,0,0,0,0,0,0,0,0,0,0,0,0,-1.8495,-1.8501,-1.8504,-1.8479,-1.8477,-1.8487,-1.8487,-1.8486,-1.8442,-1.844,-1.8439,-1.8437,-1.8422,-1.8423,-1.8423,-1.8457,0,0,-1.8425,-1.8426,0,0,0,0,0,0,0,0,-1.8495,-1.8495,-1.8483,-1.8481,-1.8478,-1.8465,-1.8479,-1.8476,-1.8442,-1.8455,-1.8438,-1.8437,-1.8438,-1.8437,-1.8437,-1.8456,-1.8455,-1.8425,-1.8426,-1.8426,-1.8426,0,0,0,0,0,0,0,-1.8495,-1.8495,-1.8497,-1.8483,-1.848,-1.847,-1.8467,-1.8478,-1.8455,-1.8454,-1.845,-1.8449,-1.8436,-1.8436,-1.8436,-1.8455,-1.8425,-1.8426,-1.8426,-1.8427,-1.85,-1.8502,0,0,0,0,0,0,-1.8499,-1.8496,-1.8498,-1.8497,-1.8483,-1.8471,-1.8468,-1.8471,-1.8454,-1.8451,-1.845,-1.8447,-1.8436,-1.8435,-1.8435,-1.8473,-1.8426,-1.8427,-1.8427,-1.8499,-1.8501,-1.8502,0,0,0,0,0,0,-1.8499,-1.85,-1.8499,-1.8495,-1.8494,-1.8472,-1.8476,-1.8471,-1.8471,-1.8452,-1.8447,-1.8455,-1.8435,-1.8434,-1.8451,-1.8472,-1.8427,-1.8428,-1.8497,-1.8499,-1.8501,-1.8548,0,0,0,0,0,0,-1.8499,-1.85,-1.8512,-1.8496,-1.8495,-1.8514,-1.8477,-1.8472,-1.8472,-1.8468,-1.8455,-1.8451,-1.8434,-1.8451,-1.8452,-1.8472,-1.8428,-1.8495,-1.8498,-1.8501,-1.8545,-1.8552,-1.8558,0,0,0,0,0,-1.8499,-1.8526,-1.8513,-1.8513,-1.8509,-1.8516,-1.8515,-1.8493,-1.8474,-1.8486,-1.8474,-1.8452,-1.847,-1.8453,-1.8454,-1.8474,-1.8494,-1.8497,-1.85,-1.8542,-1.8551,-1.8558,0,0,0,0,0,0,-1.8545,-1.8524,-1.8508,-1.8531,-1.8525,-1.8508,-1.8522,-1.8503,-1.8504,-1.85,-1.8474,-1.8471,-1.8492,-1.8485,-1.8467,-1.8506,-1.8478,-1.8482,-1.8509,-1.8517,-1.8524,-1.8524,-1.8429,0,0,0,0,0,-1.8558,-1.8565,-1.8546,-1.8567,-1.8565,-1.8545,-1.8547,-1.8531,-1.8524,-1.8522,-1.8511,-1.8506,-1.851,-1.8513,-1.8517,-1.8544,-1.8541,-1.8559,-1.8566,-1.8571,-1.8574,-1.8588,-1.8596,-1.8514,-1.8514,-1.8513,0,0,-1.8585,-1.8574,-1.8579,-1.8576,-1.857,-1.8578,-1.8543,-1.8553,-1.8558,-1.8523,-1.8538,-1.853,-1.8523,-1.8546,-1.8555,-1.8541,-1.8597,-1.8575,-1.858,-1.858,-1.8593,-1.8601,-1.8608,-1.8516,-1.8515,-1.8515,0,0,-1.8636,-1.8629,-1.8646,-1.864,-1.8632,-1.8618,-1.8622,-1.8608,-1.8601,-1.8615,-1.8589,-1.8596,-1.8605,-1.86,-1.8599,-1.8651,-1.863,-1.8653,-1.8687,-1.8701,-1.8707,-1.8713,-1.873,-1.8737,-1.8656,-1.8656,-1.8657,0,-1.867,-1.868,-1.8657,-1.8668,-1.8668,-1.8637,-1.8654,-1.865,-1.8643,-1.8644,-1.8628,-1.8637,-1.8631,-1.8651,-1.8664,-1.8665,-1.8669,-1.8653,-1.8708,-1.8713,-1.8718,-1.8735,-1.8742,-1.8659,-1.8659,-1.8659,-1.8658,0,-1.8722,-1.873,-1.8745,-1.8738,-1.874,-1.8754,-1.8734,-1.8738,-1.8722,-1.871,-1.8726,-1.8717,-1.8717,-1.8721,-1.8707,-1.8741,-1.8732,-1.8713,-1.8684,-1.8729,-1.8744,-1.8751,-1.8663,-1.8662,-1.8661,-1.8661,0,0,-1.8801,-1.8782,-1.8788,-1.8784,-1.8773,-1.8778,-1.8792,-1.8792,-1.8796,-1.8793,-1.8803,-1.8812,-1.8794,-1.8793,-1.8777,-1.879,-1.883,-1.8768,-1.8768,-1.878,-1.8867,-1.8881,-1.8888,-1.8817,-1.8819,-1.8819,-1.8867,0,-1.885,-1.887,-1.885,-1.8875,-1.8882,-1.8853,-1.8864,-1.8859,-1.8849,-1.8853,-1.8842,-1.8848,-1.8824,-1.8823,-1.8835,-1.8823,-1.8847,-1.8819,-1.8827,-1.8827,-1.8828,-1.8896,-1.8911,-1.8957,-1.8873,-1.8874,-1.8875,0,-1.8908,-1.8907,-1.8932,-1.8919,-1.8921,-1.8932,-1.893,-1.8935,-1.8929,-1.8921,-1.892,-1.8901,-1.8914,-1.8887,-1.8904,-1.8886,-1.8888,-1.8883,-1.8884,-1.8883,-1.8853,-1.8896,-1.8971,-1.8977,-1.8884,-1.8883,-1.8883,0,-1.8962,-1.8967,-1.8983,-1.8981,-1.8966,-1.8974,-1.8969,-1.8961,-1.8962,-1.8962,-1.8962,-1.8964,-1.8964,-1.8966,-1.8948,-1.893,-1.8967,-1.8939,-1.8961,-1.8961,-1.8969,-1.8968,-1.9043,-1.8972,-1.8972,-1.8972,-1.8972,0,-1.9017,-1.9034,-1.9007,-1.9016,-1.9034,-1.9012,-1.903,-1.9022,-1.9015,-1.9023,-1.8999,-1.9007,-1.8983,-1.8989,-1.8976,-1.8992,-1.8993,-1.8986,-1.8982,-1.8988,-1.8989,-1.8988,-1.8984,-1.8974,-1.8973,-1.8973,-1.8973,0,-1.908,-1.9063,-1.9078,-1.9063,-1.906,-1.9073,-1.9061,-1.9069,-1.9058,-1.9068,-1.9069,-1.9051,-1.9057,-1.904,-1.9043,-1.9034,-1.9057,-1.9049,-1.9059,-1.9056,-1.9078,-1.9076,-1.9155,-1.9164,-1.9088,-1.9089,-1.9089,0,-1.9116,-1.9128,-1.9114,-1.9117,-1.9113,-1.9119,-1.912,-1.9099,-1.9101,-1.9095,-1.9104,-1.9108,-1.9109,-1.912,-1.9108,-1.911,-1.9101,-1.9128,-1.9101,-1.9106,-1.91,-1.9099,-1.91,-1.9133,-1.9134,-1.9135,-1.9136,0,-1.9181,-1.9172,-1.9174,-1.9174,-1.9176,-1.9175,-1.9172,-1.9177,-1.9154,-1.9158,-1.9163,-1.9164,-1.9168,-1.9171,-1.9171,-1.9166,-1.9147,-1.9145,-1.915,-1.9155,-1.916,-1.9157,-1.9073,-1.9143,-1.9142,-1.9141,-1.9141,-1.9141,-1.9231,-1.924,-1.9232,-1.9235,-1.9231,-1.9229,-1.9236,-1.9226,-1.923,-1.923,-1.9218,-1.9225,-1.9219,-1.9217,-1.9214,-1.922,-1.9207,-1.9215,-1.9216,-1.9218,-1.9222,-1.916,-1.922,-1.922,-1.9219,-1.9219,-1.9219,0,-1.9294,-1.9287,-1.9291,-1.9288,-1.9291,-1.9273,-1.9269,-1.9273,-1.928,-1.9275,-1.9277,-1.9284,-1.9288,-1.9276,-1.9278,-1.9285,-1.9277,-1.9286,-1.9285,-1.9284,-1.9233,-1.9228,-1.9293,-1.9293,-1.9293,-1.9293,-1.9293,-1.9293,-1.9327,-1.9342,-1.9332,-1.9344,-1.9338,-1.9344,-1.9344,-1.9342,-1.9338,-1.9346,-1.9349,-1.9341,-1.9334,-1.9336,-1.9338,-1.9335,-1.9337,-1.9349,-1.9343,-1.9295,-1.9288,-1.9281,-1.9276,-1.935,-1.935,-1.9393,-1.9393,-1.9394]},{"header":{"parameterUnit":"m.s-1","parameterCategory":1,"la1":30.2991,"la2":30.254,"lo1":-89.0895,"lo2":-89.0444,"dy":0.0017,"dx":0.0017,"nx":28,"ny":28,"refTime":"2024-04-13T09:00:00:Z","depth":0,"parameterNumber":3,"parameterNumberName":"V-component_of_WINDS"},"data":[0,0,0,0,0,0,0,0,0,0,0,0,0,0,0,0,0,0,0,0,0,0,0,0,0,0,0,0,0,0,0,0,0,0,0,0,0,0,0,0,0,0,0,0,0,0,0,0,0,0,0,0,0,0,0,0,0,0,4.0084,4.0084,0,4.005,4.005,4.0049,4.006,4.0061,4.0062,4.0062,4.0021,4.0019,4.0018,0,0,0,0,0,0,0,0,0,0,0,0,0,4.0154,4.0153,4.0084,4.0084,4.0083,4.005,4.005,4.0049,4.006,4.0061,4.0062,4.0063,4.0022,4.002,4.0018,0,0,0,0,0,0,0,0,0,0,0,0,0,4.0122,4.0152,4.0084,4.0085,4.0085,4.005,4.0049,4.0049,4.006,4.0061,4.0062,4.0063,4.0022,4.002,4.0017,3.9978,0,0,4.0009,4.0008,0,0,0,0,0,0,0,0,4.0124,4.0119,4.0085,4.0085,4.0085,4.0061,4.0059,4.0025,4.0059,4.0069,4.0062,4.0064,4.0033,4.003,4.002,3.9976,3.9974,4.0009,4.0007,4.0006,4.0005,0,0,0,0,0,0,0,4.0126,4.0121,4.007,4.0085,4.0084,4.0085,4.0082,4.0053,4.0045,4.0068,4.0069,4.0065,4.0033,4.0023,4.002,3.9974,4.0009,4.0006,4.0005,4.0004,3.9896,3.9895,0,0,0,0,0,0,4.0129,4.0123,4.0072,4.0069,4.0108,4.0083,4.0079,4.0067,4.0045,4.0043,4.0064,4.0066,4.0027,4.0023,4.0018,3.9972,4.0006,4.0003,4.0002,3.9897,3.9896,3.9894,0,0,0,0,0,0,4.0131,4.0125,4.0073,4.0096,4.009,4.0081,4.0067,4.0066,4.0056,4.0042,4.004,4.0056,4.0028,4.0022,3.9989,3.997,4.0002,4.0,3.9899,3.9897,3.9895,3.9878,0,0,0,0,0,0,4.0133,4.0125,4.0111,4.0096,4.0089,4.0045,4.0066,4.0064,4.0052,4.0054,4.0034,4.0032,4.0028,3.9993,3.9986,3.9967,3.9998,3.99,3.9898,3.9896,3.988,3.9876,3.9872,0,0,0,0,0,4.0135,4.0106,4.0111,4.0104,4.0072,4.0044,4.004,4.0038,4.005,4.0036,4.0027,4.0032,3.9973,3.9989,3.9982,3.9962,3.9902,3.9899,3.9896,3.9882,3.9876,3.9872,0,0,0,0,0,0,4.0117,4.0104,4.0109,4.0075,4.0061,4.0046,4.0028,4.0032,4.0013,4.0016,4.0012,4.0008,3.9974,3.9964,3.9982,3.9923,3.9939,3.9935,3.9931,3.9925,3.9922,3.9925,3.9995,0,0,0,0,0,4.011,4.0091,4.008,4.005,4.0043,4.0037,4.0025,4.0025,4.001,4.0003,3.9992,3.9976,3.9954,3.9939,3.9918,3.9878,3.9874,3.9861,3.9857,3.9854,3.985,3.9829,3.9823,3.9885,3.9885,3.9885,0,0,4.0093,4.0084,4.0071,4.0046,4.0036,4.0015,4.0032,4.0008,3.9992,3.9999,3.9968,3.9959,3.994,3.9904,3.9888,3.9895,3.9832,3.985,3.9848,3.9846,3.9826,3.982,3.9815,3.9883,3.9884,3.9884,0,0,4.0053,4.0044,4.0019,4.0009,3.9993,3.9989,3.9983,3.9968,3.9963,3.9932,3.9937,3.9917,3.9879,3.9866,3.9854,3.9809,3.9813,3.9802,3.9781,3.976,3.9755,3.9751,3.9736,3.973,3.9798,3.9798,3.9798,0,4.0034,4.0004,4.0005,3.9982,3.9971,3.9978,3.9952,3.9941,3.9919,3.991,3.9919,3.9872,3.986,3.9821,3.9811,3.98,3.9793,3.9804,3.9756,3.9752,3.9748,3.9733,3.9727,3.9797,3.9797,3.9797,3.9797,0,3.9982,3.9961,3.9942,3.9923,3.991,3.9885,3.9881,3.9867,3.9868,3.9863,3.9831,3.9816,3.9793,3.9783,3.9783,3.9745,3.975,3.9758,3.9774,3.9741,3.9727,3.9721,3.9795,3.9796,3.9796,3.9796,0,0,3.9929,3.9912,3.9905,3.9897,3.988,3.9863,3.9839,3.9818,3.9806,3.979,3.9769,3.9737,3.9745,3.9731,3.9729,3.9712,3.9678,3.9722,3.9721,3.9714,3.9635,3.9629,3.9623,3.968,3.9679,3.9678,3.9636,0,3.9888,3.9847,3.9848,3.9809,3.979,3.9797,3.9775,3.9762,3.9757,3.9738,3.9731,3.9709,3.972,3.9712,3.9695,3.9686,3.9662,3.9689,3.966,3.9659,3.9665,3.9615,3.9609,3.9571,3.9631,3.963,3.9629,0,3.9834,3.9819,3.978,3.9768,3.9759,3.974,3.9722,3.9704,3.9689,3.9686,3.9672,3.9673,3.9647,3.9664,3.9627,3.9645,3.9633,3.9627,3.9626,3.9623,3.9642,3.9612,3.9558,3.9552,3.962,3.9621,3.9622,0,3.9801,3.977,3.9743,3.9736,3.972,3.9707,3.9699,3.9685,3.9673,3.9656,3.9648,3.9627,3.9615,3.9598,3.9594,3.9606,3.9557,3.9573,3.9553,3.9553,3.9542,3.9543,3.9487,3.9534,3.9534,3.9534,3.9534,0,3.9755,3.9731,3.9728,3.9711,3.9684,3.9684,3.9656,3.9649,3.9637,3.9618,3.9622,3.9604,3.9598,3.9579,3.9574,3.9545,3.9539,3.9535,3.9534,3.9535,3.9536,3.9528,3.953,3.9533,3.9533,3.9533,3.9533,0,3.9713,3.971,3.9681,3.967,3.9666,3.9647,3.9636,3.9619,3.9614,3.959,3.9584,3.9576,3.9553,3.9547,3.9518,3.9516,3.9481,3.9482,3.9487,3.9487,3.9467,3.947,3.9404,3.9395,3.9448,3.9447,3.9447,0,3.9684,3.9666,3.9653,3.9642,3.9635,3.9616,3.9604,3.9603,3.959,3.9572,3.9557,3.9535,3.9518,3.948,3.9471,3.9449,3.945,3.9429,3.9447,3.9449,3.9451,3.9452,3.945,3.9425,3.9425,3.9424,3.9424,0,3.9634,3.9634,3.9618,3.9601,3.9588,3.9574,3.9561,3.9551,3.9547,3.9532,3.951,3.9497,3.9469,3.9447,3.9426,3.9416,3.9419,3.9418,3.9413,3.9413,3.9417,3.9416,3.9478,3.942,3.942,3.942,3.9421,3.9421,3.9598,3.9583,3.9572,3.9554,3.9544,3.9532,3.9516,3.951,3.9493,3.9472,3.9471,3.9447,3.9432,3.9404,3.9393,3.9373,3.938,3.9371,3.9369,3.9367,3.9366,3.942,3.9369,3.9369,3.9369,3.937,3.937,0,3.9549,3.9542,3.9526,3.9509,3.9494,3.95,3.9486,3.9473,3.9453,3.944,3.9423,3.9398,3.9376,3.9365,3.9344,3.933,3.9331,3.9324,3.9326,3.9323,3.9361,3.9369,3.9324,3.9324,3.9324,3.9324,3.9324,3.9324,3.9521,3.9496,3.9495,3.9464,3.9457,3.9436,3.9427,3.9416,3.9405,3.9378,3.9361,3.9355,3.9342,3.932,3.93,3.9298,3.929,3.9283,3.928,3.9316,3.9321,3.9325,3.9332,3.9281,3.9281,3.9244,3.9244,3.9244]}]]